Location: Damron Cemetery
(35.0673°N, 88.5514°W)
Time: 00:47:46
(UTC+00:00)

Daily predictions for brighter satellites

Satellite Brightness Start Highest point End
(mag) Time Altitude Azimuth Time Altitude Azimuth Time Altitude Azimuth
H-2A R/B 3.0 00:16:09 10° ESE 00:20:10 26° ENE 00:24:15 10° NNE
Cosmos 158 Rocket 4.0 00:16:57 10° N 00:22:08 59° ENE 00:27:08 10° SSE
Iridium 4 Rocket 3.4 00:18:51 10° SSE 00:23:30 60° E 00:28:37 10° N
ARGOS 4.3 00:19:59 10° ESE 00:24:04 23° ENE 00:28:10 10° NNE
GPS 2-04 Rocket1 4.3 00:23:05 10° W 00:26:48 30° SSW 00:30:27 10° SE
SJ 16-02 3.2 00:24:53 10° SW 00:28:54 35° WNW 00:32:56 10° N
Cosmos 1437 3.8 00:26:42 10° NNE 00:29:09 23° ENE 00:31:35 10° SE
Cosmos 1939 Rocket 3.6 00:28:28 10° S 00:32:31 61° W 00:36:37 10° NNW
CZ-2C R/B 3.9 00:29:01 10° NE 00:33:03 20° E 00:37:06 10° SE
Milstar 3 Cent rocket 3.9 00:27:00 10° SW 00:33:05 23° SSE 00:37:15 10° ESE
Helios 1A Rocket 3.7 00:29:33 10° S 00:33:33 58° W 00:37:37 10° NNW
NOSS 2-2 (E) 3.0 00:31:31 10° SSW 00:35:02 90° WNW 00:38:39 10° NNE
SL-16 R/B 3.7 00:29:53 10° NW 00:35:09 41° WSW 00:40:23 10° S
Cosmos 1378 Rocket 4.0 00:30:56 10° NNW 00:35:12 65° W 00:39:27 10° S
Okean 2 Rocket 4.2 00:32:00 10° SE 00:35:32 23° E 00:39:05 10° NE
CZ-2D R/B 3.7 00:35:13 10° S 00:39:04 67° W 00:42:56 10° NNW
Cosmos 2263 Rocket 2.6 00:33:46 10° SSW 00:39:16 67° WNW 00:44:50 10° NNE
ATLAS 2AS CENTAUR R/B 4.4 00:36:46 10° ESE 00:39:27 12° ESE 00:40:32 12° E
Okean-O 2.9 00:35:08 10° S 00:39:32 74° WSW 00:43:58 10° NNW
Cosmos 1900 4.4 00:34:36 10° NNW 00:39:47 77° ENE 00:44:55 10° SSE
HJ-1C 4.0 00:38:16 10° SE 00:41:16 35° ENE 00:44:18 10° N
DELTA 2 R/B (1) 3.8 00:36:42 10° WNW 00:42:12 64° NNE 00:46:52 15° E
Meteor 2-9 Rocket 4.3 00:36:47 10° S 00:42:39 87° E 00:48:31 10° N
NOSS 2-2 (D) 2.9 00:40:00 10° SSW 00:43:32 85° SE 00:47:07 10° NNE
CZ-2C R/B 3.1 00:39:37 10° SSE 00:44:38 63° ENE 00:50:00 10° N
Cosmos 1844 Rocket 3.6 00:42:15 10° SSE 00:46:39 25° ESE 00:51:04 10° NE
Cosmos 1300 Rocket 4.3 00:43:44 10° SSE 00:47:32 30° E 00:51:23 10° NNE
USA 116 4.2 00:49:41 10° N 00:53:11 59° WNW 00:57:06 10° SSW
Ariane Rocket 4.1 00:50:37 16° ESE 00:53:15 24° ENE 00:57:15 10° NNE
YAOGAN 1 2.8 00:49:11 10° S 00:53:29 72° W 00:57:48 10° NNW
USA 186 3.5 00:54:52 16° ENE 00:54:52 16° ENE 00:56:33 10° NNE
Cosmos 1464 Rocket 4.0 00:55:04 10° SSE 01:00:58 54° E 01:06:56 10° NNE
Cosmos 1943 3.2 00:55:23 10° NNW 01:01:00 66° ENE 01:06:38 10° SSE
Cosmos 2298 Rocket 4.3 00:56:55 10° S 01:01:55 43° ESE 01:06:55 10° NNE
Okean 2 3.7 00:58:00 10° NNW 01:02:08 69° W 01:06:15 10° S
Meteor 1-12 Rocket 4.4 00:57:11 10° S 01:02:58 56° E 01:08:42 10° NNE
CSL-04 Debris 4.2 01:01:36 10° SSE 01:06:59 82° WSW 01:12:24 10° NNW
CZ-4 R/B 3.3 01:07:23 10° SSW 01:11:13 34° W 01:15:04 10° NNW
Meteor 1-21 4.3 01:08:28 10° N 01:14:04 80° W 01:19:38 10° S
CSL-04 Rocket 3.9 01:11:00 10° S 01:16:21 71° WSW 01:21:48 10° NNW
Cosmos 2151 Rocket 3.8 01:12:26 10° SSE 01:16:40 47° E 01:20:58 10° NNE
Cosmos 1867 4.1 01:14:26 10° NNW 01:19:37 41° NE 01:21:23 32° E
Cosmos 1603 3.9 01:15:05 10° NNW 01:20:43 70° WSW 01:26:16 10° S
CZ-2C R/B 0.7 01:17:58 10° W 01:21:32 89° S 01:22:04 61° E
Cosmos 1025 Rocket 3.3 01:19:00 10° N 01:23:12 44° E 01:23:50 41° ESE
USA 102 4.0 01:22:50 51° SE 01:24:08 80° ENE 01:30:12 10° NNW
Cosmos 372 Rocket 4.3 01:22:07 10° SSW 01:27:20 69° WNW 01:32:34 10° NNE
Cosmos 2150 Rocket 3.9 01:26:33 10° S 01:31:51 78° ESE 01:37:17 10° NNE
DMSP B5D2-2 4.0 01:28:22 10° NNE 01:33:38 65° ESE 01:38:51 10° S
BREEZE-M DEB (TANK) 4.0 01:36:06 10° NW 01:39:46 45° NE 01:42:24 33° E
Cosmos 1125 Rocket 3.4 01:36:48 10° S 01:42:00 62° ESE 01:47:15 10° NNE
SJ-6B 3.4 01:44:19 42° NNE 01:44:19 42° NNE 01:46:57 10° N
Cosmos 2084 Rocket 4.2 01:40:56 10° NW 01:45:18 53° WSW 01:46:48 36° S
Cosmos 1707 3.2 01:41:41 10° NNW 01:45:28 59° W 01:46:32 41° SSW
Resurs 01 Rocket 3.8 01:49:35 15° NNE 01:49:35 15° NNE 01:50:32 10° NNE
ISS -1.1 01:49:38 10° WNW 01:51:52 16° NNW 01:53:14 14° N
USA 234 3.3 01:46:13 10° NE 01:52:46 77° NW 01:59:18 10° SW
Cosmos 2034 Rocket 4.2 01:51:41 10° SSW 01:58:02 72° W 02:04:24 10° N
H-2A R/B 3.7 01:55:11 10° SSW 01:59:27 29° W 02:03:47 10° NW
Nadezhda 4 Rocket 3.8 01:55:03 10° N 02:01:12 87° E 02:03:08 47° S
ARGOS 4.4 01:59:04 10° SSW 02:04:01 39° W 02:09:02 10° NNW
In-Cosmos 22 4.4 02:00:53 10° NNW 02:06:07 64° W 02:07:58 39° SSW
CZ-2C R/B 3.7 02:08:12 10° N 02:13:28 46° WNW 02:18:47 10° SW
Cosmos 1048 Rocket 4.3 02:10:54 10° NNW 02:15:16 60° N 02:15:16 60° N
Cosmos 1844 4.1 02:13:27 10° SSW 02:19:06 61° WNW 02:24:43 10° NNE
DELTA 2 R/B (1) 4.3 02:23:15 10° WNW 02:27:38 47° WSW 02:27:38 47° WSW
ATLAS 2AS CENTAUR R/B 2.9 02:21:24 10° SSW 02:33:18 32° NE 02:37:10 10° NE
Cosmos 1844 Rocket 4.0 02:25:08 10° SW 02:30:15 37° WNW 02:35:26 10° N
Cosmos 1634 Rocket 4.4 02:32:53 55° N 02:32:53 55° N 02:37:34 10° N
Ariane Rocket 4.4 02:30:50 30° SW 02:31:59 33° W 02:36:33 10° NNW
CENTAUR R/B 3.3 02:39:33 10° NNW 02:47:17 62° NE 02:47:17 62° NE
ATLAS 3B R/B 4.4 02:48:12 10° N 02:51:46 21° NNE 02:51:46 21° NNE
USA 238 DEB 4.0 02:49:06 10° NNW 02:55:26 69° NW 02:55:26 69° NW
USA 238 4.0 02:49:11 10° NNW 02:55:31 69° NW 02:55:31 69° NW
IDEFIX/ARIANE 42P 4.2 08:33:55 10° NNE 08:36:52 31° NE 08:36:52 31° NE
ARIANE 5 R/B 4.4 08:41:05 10° NNE 08:43:09 25° NNE 08:43:09 25° NNE
H-2A R/B 4.4 08:58:50 10° ESE 09:02:14 23° ENE 09:05:41 10° NNE
BREEZE-M DEB (TANK) 3.9 09:13:55 57° SW 09:15:55 81° SE 09:20:19 10° ENE
ASTEX 1 4.4 09:11:06 10° N 09:14:18 41° N 09:14:18 41° N
Cosmos 1697 Rocket 4.1 09:19:35 27° NNW 09:19:35 27° NNW 09:22:37 10° N
CZ-2C R/B 3.9 09:14:58 10° NNE 09:19:42 36° E 09:23:04 17° SSE
SL-4 R/B 3.9 09:19:51 27° SE 09:19:51 27° SE 09:23:43 10° ENE
Cosmos 1980 Rocket 2.5 09:22:31 55° NNW 09:22:31 55° NNW 09:27:13 10° NNE
Cosmos 2322 Rocket 3.9 09:22:37 10° SSE 09:27:23 29° ESE 09:32:11 10° NE
SL-16 R/B 3.2 09:31:25 19° SSE 09:35:06 43° ESE 09:40:25 10° NE
Cosmos 2263 Rocket 3.9 09:30:44 10° N 09:35:46 32° ENE 09:40:46 10° SE
Chandra Rocket (1) 4.4 09:31:38 36° WSW 09:38:11 55° SSW 09:44:26 10° SE
Meteor 1-14 Rocket 4.0 09:36:13 10° N 09:41:49 85° W 09:47:20 10° S
NOSS 3-3 (A) 3.7 09:45:00 57° WSW 09:45:59 68° WNW 09:52:13 10° NNE
NOSS 3-3 (C) 3.7 09:45:10 57° WSW 09:46:08 68° NW 09:52:17 10° NNE
Celestis-02/Orion 38 4.5 09:42:54 10° SSE 09:48:11 66° WSW 09:53:22 10° NNW
Lacrosse 5 3.7 09:48:47 18° NNW 09:48:47 18° NNW 09:52:13 10° N
Cosmos 1238 Rocket 3.8 09:44:32 10° N 09:51:04 71° W 09:56:55 10° S
Meteor 2-6 Rocket 4.1 09:48:56 33° SSW 09:51:33 82° W 09:57:19 10° N
BREEZE-M DEB (TANK) 4.5 09:50:54 36° W 09:54:12 66° NNW 10:20:41 10° ENE
Cosmos 921 Rocket 3.0 09:55:09 57° NW 09:55:09 57° NW 09:58:53 10° N
Cosmos 44 4.2 09:58:36 29° NW 09:58:36 29° NW 10:02:04 10° N
Meteor 1-5 Rocket 4.3 09:53:51 10° N 09:59:11 71° E 10:04:36 10° SSE
Cosmos 2228 Rocket 3.5 10:01:20 43° WNW 10:01:20 43° WNW 10:05:04 10° N
IRIDIUM 114 4.3 10:00:59 10° N 10:06:14 88° E 10:11:26 10° S
Meteor 1-4 Rocket 2.2 10:09:30 64° SW 10:09:52 72° W 10:13:20 10° N
Cosmos 1934 Rocket 4.3 10:05:40 10° NNW 10:11:15 40° W 10:16:52 10° SSW
X-37B 3.2 10:10:31 12° NNW 10:11:41 14° N 10:13:28 10° NE
Skynet4D Del rocket 4.5 10:09:50 28° SW 10:11:50 37° S 10:17:27 10° ESE
ADEOS 3.9 10:09:08 10° NNE 10:14:20 69° ESE 10:19:32 10° S
IRIDIUM 103 4.2 10:10:08 10° N 10:15:21 75° W 10:20:32 10° S
Cosmos 1536 4.4 10:13:22 10° N 10:17:12 39° E 10:21:00 10° SSE
IDEFIX/ARIANE 42P 4.1 10:14:41 10° NNW 10:17:40 18° WNW 10:17:40 18° WNW
DELTA 4 R/B 4.3 10:09:18 23° W 10:18:38 43° SSW 10:23:43 10° SE
ADEOS Rocket 3.4 10:12:06 10° SSE 10:19:13 81° ENE 10:25:38 10° N
Cosmos 1484 Rocket 3.5 10:16:59 10° NNE 10:20:54 56° E 10:24:50 10° S
USA 234 3.2 10:14:52 10° SE 10:21:22 75° SW 10:27:55 10° NW
Cosmos 1869 Rocket 3.5 10:19:54 10° NNW 10:24:10 59° W 10:28:24 10° S
ALOS 2.8 10:20:03 10° NNE 10:24:41 61° E 10:29:16 10° S
Meteor 1-11 Rocket 3.8 10:20:27 10° N 10:26:14 80° E 10:31:51 10° S
Cosmos 1153 Rocket 4.5 10:21:36 10° N 10:27:59 80° W 10:34:16 10° S
Cosmos 1862 Rocket 4.4 10:24:17 10° S 10:28:34 52° E 10:32:49 10° NNE
ERS-2 2.1 10:25:32 10° S 10:29:06 54° WSW 10:32:42 10° NNW
Cosmos 967 Rocket 4.5 10:23:33 10° SSW 10:30:00 85° WNW 10:36:28 10° NNE
Meteor 1-31 Rocket 3.2 10:27:58 10° NNE 10:31:46 61° E 10:35:33 10° S
FALCON 9 DEB 3.2 10:31:12 32° WSW 10:32:33 59° NW 10:35:57 10° NE
Cosmos 841 Rocket 3.8 10:28:16 10° S 10:33:25 71° ESE 10:38:38 10° NNE
IRIDIUM 106 4.5 10:28:37 10° NNW 10:33:37 48° W 10:38:36 10° SSW
Meteor 1-27 Rocket 3.8 10:27:57 10° SSW 10:33:52 72° W 10:39:48 10° N
Cosmos 1605 Rocket 4.3 10:28:43 10° NNW 10:34:42 43° W 10:40:40 10° SSW
H-2A R/B 3.0 10:34:24 10° SSW 10:38:02 26° W 10:41:44 10° NW
SJ 16-02 1.3 10:34:51 10° NNW 10:39:10 59° WSW 10:43:28 10° S
Cosmos 1763 Rocket 3.9 10:38:57 11° SW 10:43:50 44° WNW 10:48:55 10° N
Cosmos 1000 Rocket 4.4 10:38:24 10° S 10:44:37 83° W 10:50:49 10° N
Cosmos 1570 Rocket 4.0 10:40:47 10° SSW 10:46:05 89° WNW 10:51:27 10° NNE
Cosmos 1812 4.3 10:47:59 16° W 10:48:18 16° WNW 10:50:44 10° NW
Cosmos 2360 Rocket 2.2 10:49:50 10° SSW 10:55:30 89° WNW 11:01:13 10° NNE
SJ-12 4.1 10:53:25 10° NNE 10:57:33 78° ESE 11:01:41 10° S
CZ-4B R/B 1.6 10:54:43 10° S 10:57:37 38° W 11:00:37 10° NNW
CZ-2C R/B 3.7 10:53:39 10° NNW 10:57:40 23° WNW 11:01:41 10° WSW
SL-4 R/B 2.9 10:55:28 13° WSW 10:59:18 44° NW 11:03:53 10° NE
Meteor 2-20 4.4 10:54:23 10° S 11:00:32 79° W 11:06:41 10° N
COSMO-SKYMED 1 3.4 10:57:03 10° SSE 11:01:17 57° ENE 11:05:32 10° N
SL-8 R/B 4.4 10:57:58 10° NW 11:02:40 56° NNE 11:07:21 10° ESE
Cosmos 1666 3.5 11:01:30 10° NNW 11:04:50 30° W 11:08:10 10° SSW
DEBRIS 3.4 11:04:56 10° NW 11:07:56 89° NNE 11:17:14 10° SE
Cosmos 2100 Rocket 4.1 11:03:25 10° NNW 11:09:41 60° W 11:15:53 10° S
METEOR-M 4.2 11:04:36 10° N 11:09:50 57° WNW 11:15:03 10° SSW
Cosmos 2322 Rocket 2.9 11:06:11 10° SW 11:11:15 34° WNW 11:16:23 10° N
Cosmos 990 Rocket 4.3 11:06:26 10° NNW 11:11:22 45° WSW 11:16:18 10° S
Cosmos 1802 Rocket 4.0 11:06:13 10° N 11:12:25 77° W 11:18:41 10° S
Cosmos 44 Rocket 3.4 11:09:08 10° SW 11:13:43 54° WNW 11:18:26 10° NNE
FENGYUN 3A 4.1 11:09:05 10° N 11:14:08 42° WNW 11:19:11 10° SW
Cosmos 540 Rocket 3.8 11:11:23 10° SW 11:16:17 44° WNW 11:21:14 10° N
Cosmos 2237 4.4 11:11:16 10° SW 11:16:49 53° WNW 11:22:24 10° NNE
SL-16 R/B 3.4 11:14:52 10° WSW 11:19:20 24° WNW 11:23:50 10° N
Cosmos 2263 Rocket 2.9 11:14:40 10° NW 11:19:33 31° WSW 11:24:26 10° SSW
